Wind_Speed
17 14 12 13 15 17 19 22 23 25 26 27 27 27 26 25 24 23 22 22 21 20 19 18 18 18 18 18 18 17 19 22 24 26 26 25 24 23 22 20 18 19 21
10 10 12 13 15 17 19 21 21 21 22 22 23 23 23 23 23 23 22 21 20 20 19 19 18 18 19 20 20 19 20 21 23 26 28 30 30 28 26 24 23 22 21
7 10 12 13 14 16 17 17 18 18 18 20 21 21 21 21 21 21 21 20 20 20 20 20 19 18 18 19 20 21 21 22 23 25 27 30 32 32 30 29 28 27 26
9 11 13 13 13 14 14 15 16 17 18 18 19 20 20 21 21 21 21 20 20 21 22 22 21 20 19 18 19 21 22 23 23 24 25 28 31 32 32 31 31 31 30
12 14 14 13 13 12 14 16 17 18 19 19 19 19 20 21 22 22 22 22 22 22 24 25 24 23 21 21 20 21 22 24 25 25 26 27 29 31 33 34 34 34 33
14 14 13 13 13 14 17 19 19 20 20 20 20 20 20 20 21 21 22 22 23 23 24 25 26 25 24 23 23 23 24 24 25 26 25 26 28 31 34 36 37 36 34
13 13 14 15 16 18 19 20 21 21 21 21 21 21 21 21 21 22 21 22 22 23 24 25 26 26 26 25 25 25 25 25 25 25 26 25 27 29 32 36 38 39 38
13 14 16 17 18 19 20 21 21 21 21 22 22 22 22 21 21 22 22 22 23 23 23 24 25 26 26 26 26 26 26 26 26 26 26 27 26 26 30 34 36 39 40
14 16 17 18 19 20 20 20 20 20 20 21 21 21 21 20 20 20 21 22 22 22 22 23 24 25 25 25 25 26 26 26 26 26 26 26 26 25 25 29 33 37 40
15 16 17 18 19 19 19 19 19 19 19 19 19 19 19 19 19 19 20 21 21 21 22 23 23 24 24 24 24 24 25 25 25 25 25 25 24 24 23 24 28 33 39
16 17 18 19 19 20 20 20 20 20 19 18 18 19 19 19 19 20 20 21 23 23 24 24 25 25 24 24 24 23 23 24 24 24 24 24 23 22 21 22 24 26 30
17 17 18 19 19 20 21 20 19 18 17 17 18 19 19 19 20 21 22 23 24 26 27 27 28 28 27 26 24 23 22 22 22 23 23 23 22 22 22 22 23 24 25
18 18 18 19 19 19 18 17 16 15 14 15 16 17 18 18 19 21 22 23 24 26 28 29 29 29 29 28 26 24 23 21 21 21 22 22 22 23 25 26 27 28 28
19 19 19 18 17 17 15 14 13 12 12 13 14 14 15 17 17 18 19 20 22 24 26 27 27 27 27 27 26 24 22 21 21 21 21 21 22 23 24 26 28 29 30
20 20 20 18 17 16 14 13 12 11 11 12 12 14 15 15 16 16 16 16 16 15 15 16 18 20 21 23 23 23 21 20 20 20 20 21 21 22 23 24 25 26 27
20 20 20 19 18 17 16 14 13 13 12 13 14 15 16 16 16 15 13 13 11 8 4 3 8 12 14 16 18 18 18 17 17 17 18 18 19 20 20 20 22 23 25
20 20 21 20 19 18 17 16 15 15 15 16 16 17 17 18 17 14 12 12 10 9 8 8 8 8 9 10 11 12 12 12 13 12 13 14 15 17 19 20 22 24 26
19 20 20 20 20 20 19 18 18 17 18 19 20 20 21 20 18 15 12 11 11 12 11 11 11 10 9 7 6 6 6 7 7 8 10 13 15 17 19 21 23 25 26
18 19 19 19 19 19 20 19 19 20 20 22 23 24 24 23 20 17 15 14 14 14 14 14 13 12 10 8 6 3 1 2 4 7 10 13 16 18 20 22 24 26 27
17 17 18 18 18 18 19 19 20 21 22 23 25 26 27 26 23 21 20 19 18 17 16 16 16 14 12 10 9 7 5 5 6 8 11 13 16 18 21 23 25 26 28
15 16 16 17 17 18 18 19 20 21 23 24 26 27 28 27 26 25 25 24 23 22 20 20 19 17 15 14 12 10 9 8 9 11 13 15 17 19 21 23 24 25 26
14 14 15 15 16 17 18 19 19 20 22 24 25 27 28 28 27 27 27 26 26 25 23 22 20 19 17 15 14 14 13 14 14 16 17 18 19 20 21 22 22 23 23
12 13 14 15 16 16 17 18 18 19 20 21 23 24 25 25 25 25 25 25 24 23 22 21 19 18 18 17 17 17 17 17 18 18 19 20 20 20 21 22 22 22 21
10 11 13 15 16 17 17 17 17 18 18 19 20 21 21 22 22 23 23 22 22 21 20 19 19 18 18 18 18 18 19 19 19 19 20 20 20 21 22 23 23 23 23
8 9 11 13 15 16 17 17 17 17 17 17 17 17 18 18 19 20 20 21 20 20 19 18 18 18 18 18 18 18 19 20 21 21 22 22 22 23 23 24 25 25 25
7 7 9 11 13 15 16 16 16 16 16 16 16 15 15 15 16 17 18 18 19 19 19 18 18 18 18 18 18 18 19 19 20 21 22 23 24 24 25 25 26 27 27
Wind_Direction
230 229 237 255 269 279 286 290 293 295 297 297 296 294 291 288 284 283 283 283 277 269 262 258 255 254 253 249 247 248 242 233 229 231 235 239 242 242 241 241 239 236 235
221 239 255 269 282 289 293 295 297 299 300 298 297 296 293 288 282 278 279 277 272 267 260 255 254 253 253 251 250 250 246 238 234 235 236 238 242 244 243 243 244 243 239
258 274 283 290 296 296 298 300 302 301 299 296 295 294 292 287 280 276 276 274 268 263 259 256 254 254 253 251 249 248 246 243 241 241 241 241 242 244 243 243 244 247 245
289 302 306 308 307 303 302 303 302 299 297 297 295 292 289 285 280 276 274 272 267 261 257 256 255 254 252 249 246 244 244 244 244 245 246 248 246 244 244 243 243 245 247
308 313 313 311 310 306 304 304 302 299 297 297 297 296 292 286 281 277 273 272 268 263 258 255 254 254 253 251 248 246 243 244 246 248 251 253 250 247 246 245 245 245 246
304 308 309 307 303 303 304 303 300 298 296 296 296 296 293 287 282 277 274 273 270 264 259 255 253 253 253 254 253 252 249 248 249 251 253 255 254 253 250 248 247 247 245
301 304 305 304 304 304 304 302 300 298 296 294 294 295 293 288 283 278 277 274 272 267 260 255 252 251 252 254 256 257 256 254 253 253 255 258 258 255 254 252 249 248 245
307 306 307 306 305 305 304 302 299 296 294 293 294 294 293 289 283 278 277 275 272 269 263 256 252 250 250 251 253 255 258 258 258 257 258 260 263 263 259 255 252 248 246
311 309 307 306 305 304 303 301 299 296 294 293 293 293 294 291 285 280 277 275 273 268 263 257 253 250 249 249 251 252 255 257 259 261 263 265 265 265 263 258 252 248 247
313 309 306 304 303 303 302 300 299 296 294 293 292 293 294 292 288 283 278 275 271 268 263 257 253 251 250 250 252 254 256 258 259 260 262 264 266 265 263 262 258 252 249
317 313 310 309 308 307 306 304 302 299 295 293 292 293 293 293 290 286 281 276 271 268 264 259 254 252 252 251 252 254 257 259 260 261 262 262 262 261 261 258 258 254 249
331 328 323 320 317 315 313 311 308 304 298 295 294 295 296 295 292 289 285 279 274 269 264 260 255 252 250 249 249 251 254 257 259 259 259 259 257 255 255 255 256 256 256
346 341 337 333 329 326 323 320 316 311 306 304 303 302 302 301 299 298 294 286 279 274 268 261 255 249 246 245 246 248 252 255 256 256 255 254 254 253 254 257 261 263 265
358 355 353 350 346 342 339 336 331 327 324 322 320 319 317 313 311 308 304 298 292 281 271 262 254 247 242 240 240 244 249 252 253 254 253 253 254 256 258 260 264 266 268
9 9 8 7 5 4 2 360 356 352 348 345 343 340 336 331 326 323 320 317 312 298 279 260 246 237 233 232 233 236 243 250 252 253 255 257 259 261 264 265 267 269 270
19 19 19 20 21 21 22 21 20 17 12 6 1 356 352 348 345 344 343 346 347 345 328 232 209 206 210 216 220 227 237 246 251 255 257 260 263 266 268 270 272 273 274
24 25 26 28 30 30 30 30 29 26 21 15 11 7 4 2 1 4 10 18 28 42 72 98 123 148 171 186 202 216 229 241 250 254 259 265 271 274 276 278 278 278 278
27 28 30 32 33 34 35 35 32 29 26 25 21 16 12 12 14 21 30 40 55 68 81 91 102 113 128 144 167 195 215 232 246 262 274 283 287 289 289 288 287 286 285
28 29 30 31 32 34 35 36 35 33 31 30 27 25 24 26 32 42 53 63 69 75 82 89 95 97 98 101 108 121 152 276 291 297 299 300 300 299 299 297 295 293 291
27 28 28 29 29 31 33 34 34 34 33 32 32 33 35 39 46 56 65 70 73 76 78 82 86 86 83 80 76 68 53 20 346 328 320 316 313 310 307 304 302 299 296
26 27 28 28 28 28 29 31 33 35 36 37 38 40 43 48 56 63 69 72 73 75 76 77 78 77 73 69 65 58 46 27 9 353 342 336 331 326 322 317 312 308 304
25 28 29 29 28 28 28 30 32 34 37 39 42 45 49 53 58 63 67 69 71 73 74 74 73 70 67 63 56 48 39 28 18 9 1 355 350 345 339 334 328 322 317
24 29 32 31 29 28 27 28 29 31 34 38 41 45 49 54 58 61 65 66 68 69 70 69 67 63 60 55 49 42 34 26 20 13 9 6 3 360 356 352 349 345 340
23 32 34 33 31 29 28 28 28 30 33 36 39 42 46 50 54 57 59 61 62 62 62 60 57 54 51 46 41 36 31 27 23 19 17 14 12 10 7 5 2 359 355
19 29 31 31 29 27 27 28 29 31 34 36 37 38 41 45 48 51 53 53 53 52 51 49 46 42 39 36 33 30 28 27 25 24 23 22 20 18 16 15 13 10 7
7 15 20 22 22 22 22 23 25 28 32 34 34 35 36 39 42 44 46 45 44 44 43 41 38 34 31 28 27 25 25 25 25 24 24 24 23 22 21 19 18 17 15
Height
5788 5790 5792 5794 5796 5797 5797 5798 5797 5797 5795 5794 5792 5791 5791 5790 5789 5789 5788 5788 5788 5787 5787 5788 5789 5790 5791 5792 5794 5796 5798 5801 5805 5807 5810 5813 5816 5818 5820 5823 5825 5826 5828
5786 5788 5790 5792 5793 5793 5793 5792 5791 5790 5789 5788 5787 5785 5784 5783 5783 5783 5783 5783 5783 5783 5783 5783 5784 5785 5787 5788 5790 5792 5794 5796 5799 5802 5804 5807 5810 5813 5815 5818 5820 5822 5823
5786 5788 5789 5789 5789 5789 5788 5787 5786 5785 5784 5783 5782 5780 5779 5778 5778 5777 5777 5778 5778 5778 5779 5779 5780 5781 5782 5783 5785 5787 5789 5791 5794 5796 5798 5801 5804 5807 5809 5812 5814 5816 5818
5785 5785 5786 5786 5785 5785 5784 5783 5782 5781 5779 5778 5777 5775 5773 5773 5772 5772 5772 5772 5773 5773 5774 5775 5775 5776 5777 5779 5780 5782 5784 5786 5788 5791 5793 5794 5797 5799 5802 5805 5807 5809 5812
5783 5783 5783 5783 5782 5781 5780 5779 5778 5776 5774 5772 5771 5769 5768 5767 5766 5766 5766 5766 5767 5768 5768 5769 5770 5771 5772 5774 5775 5776 5778 5780 5782 5785 5786 5788 5790 5792 5795 5797 5800 5802 5806
5781 5781 5780 5780 5779 5778 5776 5775 5773 5771 5769 5767 5765 5764 5763 5761 5760 5760 5759 5759 5760 5761 5762 5763 5764 5765 5766 5768 5769 5771 5772 5774 5776 5778 5779 5781 5783 5784 5786 5789 5792 5795 5798
5779 5778 5778 5777 5775 5773 5771 5769 5767 5765 5763 5762 5760 5759 5757 5756 5754 5753 5753 5753 5753 5753 5754 5755 5757 5758 5759 5761 5763 5764 5766 5767 5769 5771 5772 5773 5775 5776 5778 5780 5783 5786 5789
5776 5775 5774 5772 5770 5768 5766 5764 5762 5760 5758 5756 5754 5753 5751 5749 5748 5747 5746 5746 5746 5746 5746 5748 5749 5750 5752 5754 5755 5757 5759 5760 5762 5764 5765 5766 5767 5768 5770 5771 5773 5776 5780
5773 5772 5770 5768 5766 5764 5762 5759 5757 5755 5753 5750 5748 5746 5744 5742 5741 5740 5739 5739 5739 5739 5739 5740 5741 5743 5745 5746 5748 5750 5751 5753 5755 5756 5758 5759 5760 5761 5761 5763 5764 5767 5770
5770 5768 5766 5764 5762 5759 5757 5755 5752 5749 5747 5745 5742 5740 5738 5736 5734 5733 5732 5732 5731 5732 5732 5733 5734 5736 5738 5740 5741 5743 5744 5746 5747 5749 5750 5752 5753 5754 5755 5756 5757 5758 5761
5766 5764 5761 5759 5756 5754 5751 5749 5746 5744 5741 5739 5737 5734 5732 5730 5728 5726 5725 5724 5724 5724 5724 5725 5726 5728 5730 5733 5735 5736 5738 5740 5741 5742 5743 5745 5746 5748 5749 5750 5750 5751 5752
5761 5759 5756 5753 5751 5748 5745 5743 5740 5738 5735 5733 5731 5729 5726 5724 5721 5719 5717 5716 5715 5714 5714 5715 5717 5719 5722 5725 5728 5730 5732 5734 5735 5736 5737 5739 5740 5741 5743 5743 5744 5744 5745
5758 5755 5753 5750 5746 5743 5740 5738 5735 5733 5730 5728 5726 5723 5721 5718 5715 5712 5709 5706 5704 5703 5703 5703 5705 5708 5712 5716 5720 5723 5726 5728 5730 5731 5732 5733 5734 5735 5736 5737 5737 5738 5738
5757 5754 5751 5747 5744 5741 5737 5734 5732 5730 5727 5725 5722 5719 5716 5712 5709 5705 5701 5698 5695 5692 5690 5691 5693 5697 5702 5707 5712 5716 5720 5722 5724 5725 5726 5727 5728 5729 5729 5730 5730 5730 5731
5758 5754 5751 5747 5743 5740 5736 5733 5731 5728 5725 5723 5720 5717 5713 5709 5704 5700 5696 5691 5687 5683 5681 5681 5684 5689 5694 5700 5705 5710 5714 5717 5718 5720 5721 5722 5723 5723 5723 5723 5723 5723 5723
5760 5756 5752 5748 5745 5741 5738 5735 5732 5729 5726 5723 5719 5715 5711 5706 5701 5697 5693 5688 5683 5680 5678 5678 5680 5685 5690 5695 5700 5705 5709 5712 5714 5715 5716 5717 5718 5718 5718 5717 5717 5717 5717
5762 5759 5755 5751 5747 5744 5740 5737 5734 5731 5727 5723 5719 5715 5710 5705 5699 5695 5691 5688 5685 5683 5681 5681 5683 5687 5691 5695 5699 5703 5706 5709 5711 5712 5713 5713 5714 5713 5713 5713 5712 5711 5710
5765 5762 5758 5755 5751 5747 5744 5740 5737 5733 5729 5725 5721 5715 5710 5704 5699 5695 5692 5690 5688 5687 5686 5686 5688 5690 5693 5697 5700 5703 5705 5707 5709 5710 5710 5711 5710 5709 5709 5707 5706 5705 5703
5767 5764 5761 5758 5755 5751 5748 5744 5740 5737 5733 5728 5723 5718 5712 5706 5701 5697 5694 5693 5692 5692 5692 5692 5693 5695 5698 5700 5702 5704 5706 5708 5708 5709 5708 5708 5707 5705 5704 5702 5700 5697 5695
5770 5767 5764 5761 5758 5754 5751 5748 5744 5741 5736 5732 5727 5722 5716 5710 5706 5702 5700 5699 5698 5698 5698 5699 5700 5701 5703 5704 5705 5707 5707 5708 5708 5707 5706 5705 5703 5701 5699 5696 5693 5690 5687
5772 5769 5767 5764 5761 5758 5754 5751 5748 5744 5741 5737 5732 5728 5723 5718 5714 5711 5709 5707 5706 5706 5705 5706 5706 5707 5708 5708 5709 5709 5709 5709 5708 5706 5705 5702 5700 5697 5693 5690 5686 5683 5679
5775 5772 5769 5766 5763 5760 5757 5754 5751 5748 5745 5742 5738 5734 5730 5726 5723 5720 5718 5716 5715 5714 5713 5713 5713 5713 5713 5712 5712 5711 5710 5709 5708 5705 5703 5700 5697 5693 5689 5685 5681 5677 5673
5777 5774 5772 5769 5766 5763 5760 5758 5755 5752 5749 5746 5743 5740 5737 5734 5731 5729 5727 5725 5723 5721 5720 5719 5719 5718 5717 5716 5715 5714 5712 5710 5708 5705 5702 5699 5695 5691 5687 5682 5677 5673 5668
5780 5777 5774 5771 5769 5766 5763 5760 5758 5755 5753 5750 5748 5745 5742 5740 5738 5735 5733 5731 5729 5727 5726 5724 5723 5722 5721 5719 5717 5716 5714 5711 5709 5706 5702 5698 5695 5690 5686 5681 5676 5671 5666
5781 5779 5777 5774 5771 5768 5766 5763 5761 5758 5756 5753 5751 5749 5747 5744 5742 5740 5738 5736 5734 5732 5730 5728 5727 5725 5723 5722 5719 5717 5715 5712 5709 5706 5703 5699 5695 5690 5686 5681 5676 5671 5665
5782 5780 5778 5776 5774 5771 5768 5765 5763 5761 5759 5756 5754 5752 5750 5748 5746 5744 5742 5740 5738 5736 5734 5731 5730 5728 5726 5723 5721 5719 5716 5713 5710 5707 5704 5700 5695 5691 5686 5681 5676 5671 5665